Dewpoint
55 57 58 58 57 55 57 56 55 54 55 53 50 49 48 47 46 46 46 47 45 44 43 42 41 40 39 39 35 36 38 37
56 57 55 57 55 56 57 55 54 55 51 49 46 45 45 45 44 43 45 44 42 41 42 40 39 38 40 38 37 34 35 34
55 54 54 54 54 56 56 54 54 54 50 47 46 45 44 43 44 43 42 42 41 40 35 32 33 32 33 36 37 35 37 34
53 53 53 53 53 56 55 54 54 54 50 47 45 44 43 43 42 42 38 34 31 30 30 31 32 31 31 33 37 36 34 32
52 52 52 52 53 56 56 54 55 54 50 46 44 42 41 42 42 33 27 31 31 32 32 34 35 35 35 38 38 37 35 32
49 52 52 52 53 55 57 54 54 55 50 47 44 44 43 41 33 26 28 32 32 32 34 34 37 38 38 36 35 35 34 33
45 51 52 53 55 56 57 55 54 55 51 48 45 45 42 36 27 25 28 31 30 33 34 35 39 38 37 37 36 35 35 34
44 50 51 52 55 56 56 55 55 54 52 48 45 44 40 33 26 27 29 28 27 30 30 31 37 39 38 38 37 36 36 34
47 50 52 53 54 56 56 52 50 48 48 46 42 38 34 28 27 28 28 28 28 30 31 31 38 37 37 38 37 35 36 36
48 51 53 53 54 54 53 50 48 45 44 40 37 34 32 28 28 29 28 29 29 30 30 31 31 32 35 37 37 35 35 35
51 52 53 54 55 52 49 47 45 43 41 39 37 34 32 30 29 28 28 29 30 30 30 29 29 29 30 32 34 32 29 29
51 53 53 54 52 47 47 43 41 40 39 39 39 34 33 31 29 29 30 30 30 29 29 28 28 29 30 29 28 27 28 29
51 52 51 49 46 45 45 42 41 39 38 37 36 35 33 30 29 32 31 28 29 29 28 28 29 29 30 30 29 29 29 29
50 50 49 48 46 44 44 43 41 40 40 38 35 32 31 31 33 31 30 29 29 28 27 27 27 29 30 30 29 29 29 29
47 48 48 47 46 44 43 44 42 41 39 37 35 33 32 33 30 30 30 30 29 28 28 28 28 29 30 30 29 28 28 28
43 45 46 46 46 46 45 43 40 39 38 37 34 36 35 32 32 31 31 30 28 28 28 29 30 30 29 29 28 27 27 26
38 40 41 41 43 45 45 42 40 39 37 35 36 36 34 34 32 31 31 31 30 30 32 32 31 31 30 30 29 27 26 23
34 37 40 40 40 43 43 41 40 38 36 36 36 37 34 32 31 32 32 33 36 36 33 30 28 30 30 30 32 27 24 22
33 33 34 39 43 43 44 40 38 36 36 35 35 33 33 33 32 33 34 36 35 33 31 29 29 29 29 30 31 25 22 21
Wind_Speed
21 19 16 16 16 17 17 16 17 17 14 12 10 11 11 11 12 13 13 14 14 15 12 10 8 8 6 5 5 4 4 4
24 22 18 17 15 18 17 18 17 16 14 15 14 15 11 10 10 12 14 15 13 13 11 9 7 8 6 5 3 5 7 4
24 22 21 22 23 21 20 21 20 16 15 11 7 12 6 9 9 10 12 12 11 11 11 10 9 8 7 6 5 2 4 6
26 26 25 22 23 24 25 25 24 19 16 14 11 9 7 5 8 8 6 10 11 12 11 11 10 8 7 5 4 4 2 6
22 24 26 27 26 25 26 26 24 19 19 18 22 20 17 10 9 7 9 9 11 11 11 10 10 8 7 5 3 3 4 3
26 29 28 25 22 23 21 20 21 18 21 21 21 17 9 10 12 14 11 10 11 10 10 9 9 9 8 9 8 8 4 3
22 22 20 21 19 19 19 20 22 19 21 21 25 23 19 20 17 16 12 11 9 9 10 10 9 8 8 9 7 6 5 5
24 27 24 23 24 23 21 22 23 23 20 18 21 22 22 23 22 17 16 12 8 9 9 8 5 6 6 6 6 6 7 6
27 29 27 25 25 23 22 22 19 20 19 19 14 19 18 16 16 16 15 11 11 8 9 6 4 5 7 8 5 3 5 6
26 24 27 26 24 26 27 24 20 19 17 17 21 21 22 22 18 17 15 15 13 12 10 11 8 6 6 8 6 5 6 5
19 22 24 25 24 22 21 23 27 27 25 23 21 21 20 19 19 20 20 19 16 15 13 11 9 7 6 5 6 4 3 5
22 23 22 23 20 23 24 22 23 23 23 23 25 21 18 18 18 17 18 17 15 14 13 10 8 7 4 7 6 4 4 5
24 23 22 24 25 23 27 23 24 24 20 19 20 19 18 20 19 19 18 18 15 15 12 9 7 5 4 9 8 8 9 10
11 13 19 22 22 21 22 21 19 15 15 16 16 19 22 22 19 19 18 17 16 14 12 9 5 8 8 11 11 11 12 13
14 12 15 16 16 14 14 16 16 16 17 19 22 23 23 21 19 19 19 16 15 13 11 7 9 11 11 12 13 13 15 13
12 15 14 13 12 12 15 17 19 21 23 24 23 21 18 16 16 14 12 12 12 9 4 7 12 11 13 15 15 17 15 12
3 8 14 18 18 19 18 20 20 20 21 24 19 17 14 12 13 13 10 6 3 3 4 12 13 14 17 20 18 18 14 12
12 11 8 8 13 16 22 22 21 24 23 17 16 15 16 18 17 15 12 7 4 8 10 12 15 17 18 19 19 16 16 16
10 10 9 7 5 5 2 7 8 9 11 14 16 18 20 18 17 13 9 4 4 9 13 14 12 13 14 15 18 16 14 14
Wind_Direction
203 204 201 192 186 179 171 165 157 148 141 136 123 134 137 141 137 135 141 135 132 127 125 117 111 106 89 89 94 82 94 86
196 199 190 186 180 174 170 163 157 147 148 152 150 155 148 139 146 146 140 143 141 130 119 121 110 97 97 74 92 53 52 52
192 191 184 186 185 178 170 169 169 172 165 162 154 154 150 154 154 155 147 142 138 125 126 110 97 92 71 61 68 70 74 21
189 190 189 188 190 182 180 179 179 178 168 138 115 97 108 137 156 152 147 130 110 112 103 91 77 68 54 37 41 79 106 36
196 195 192 190 195 194 188 182 182 180 166 163 168 175 174 184 167 146 113 107 111 104 95 89 83 70 53 47 68 94 110 139
191 201 204 193 188 198 196 186 184 181 177 177 175 178 181 147 142 135 121 113 104 103 100 86 81 94 105 106 102 99 98 135
193 197 194 200 190 195 196 189 191 186 186 188 182 181 171 157 158 152 139 125 112 103 95 88 104 120 143 154 151 145 149 144
184 187 191 195 193 195 196 192 196 196 198 191 182 179 170 170 165 158 149 144 131 120 110 96 122 169 172 186 166 172 179 174
189 188 191 194 198 200 195 199 195 185 187 185 166 162 167 166 158 157 159 145 135 130 112 107 141 183 191 204 209 215 214 217
189 181 189 192 195 199 195 196 191 183 174 162 165 160 164 166 156 153 150 148 147 148 147 160 169 187 188 202 224 239 216 229
184 188 190 194 199 195 188 189 188 182 172 166 164 166 165 159 153 157 163 163 160 163 179 159 175 193 186 190 209 213 217 248
189 189 196 192 189 187 188 184 178 177 172 169 168 170 159 157 160 164 163 166 171 171 173 166 191 205 189 192 189 207 215 222
198 194 183 184 190 188 191 186 184 183 176 168 167 164 163 169 170 171 173 174 177 174 175 178 195 212 230 206 212 204 209 205
203 188 196 198 198 195 192 190 190 172 168 164 166 172 174 179 179 178 178 176 179 177 180 190 195 231 226 225 228 227 216 209
209 211 211 213 212 209 195 187 178 161 164 175 184 185 183 186 180 183 182 179 176 182 196 200 232 232 229 235 233 226 213 208
202 214 222 234 227 208 197 184 174 170 179 191 194 187 183 180 181 176 166 168 186 187 199 255 255 255 249 238 222 216 212 209
132 229 237 242 233 208 194 187 183 179 192 197 187 179 174 163 145 137 141 144 116 157 261 271 283 271 259 246 223 213 209 201
41 18 345 302 253 212 205 193 181 188 194 182 167 146 132 129 119 111 107 106 43 334 297 293 287 283 275 257 225 202 200 200
47 28 13 349 287 221 148 160 160 144 124 114 109 112 110 113 116 117 110 60 271 265 287 285 284 287 287 264 214 196 195 204